• In Czech Republic
  • List of Countries
  • For 7 days
  • Water Temperature
  • Satellite Maps
  • Weather Map
  • Weather Widgets
  • user-avatar
    Login

    Hourly Weather Zhezqazghan

    Today, 17 January, Wednesday

    Time Temperature Precipitation Wind Pressure Humidity
    00:00 -7°C° 0 mm 2 mps 752 mmHg 73%
    01:00 -7°C° 0 mm 2 mps 752 mmHg 73%
    02:00 -7°C° 0 mm 2 mps 752 mmHg 73%
    03:00 -7°C° 0 mm 2 mps 752 mmHg 73%
    04:00 -7°C° 0 mm 2 mps 752 mmHg 74%
    05:00 -7°C° 0 mm 2 mps 752 mmHg 74%
    06:00 -4°C° 0 mm 1 mps 752 mmHg 74%
    07:00 -4°C° 0 mm 1 mps 752 mmHg 74%
    08:00 -5°C° 0 mm 2 mps 752 mmHg 72%
    09:00 -4°C° 0 mm 2 mps 753 mmHg 70%
    10:00 -4°C° 0 mm 2 mps 753 mmHg 68%
    11:00 -3°C° 0 mm 2 mps 753 mmHg 67%
    12:00 -2°C° 0 mm 2 mps 753 mmHg 67%
    13:00 -2°C° 0 mm 3 mps 753 mmHg 67%
    14:00 -2°C° 0 mm 2 mps 753 mmHg 69%
    15:00 -3°C° 0 mm 2 mps 753 mmHg 71%
    16:00 -3°C° 0 mm 2 mps 753 mmHg 72%
    17:00 -4°C° 0 mm 2 mps 753 mmHg 73%
    18:00 -4°C° 0 mm 2 mps 753 mmHg 73%
    19:00 -5°C° 0 mm 2 mps 753 mmHg 73%
    20:00 -5°C° 0 mm 2 mps 753 mmHg 72%
    21:00 -5°C° 0 mm 2 mps 753 mmHg 71%
    22:00 -5°C° 0 mm 2 mps 753 mmHg 70%
    23:00 -5°C° 0 mm 2 mps 753 mmHg 68%

    Tomorrow, 18 January, Thursday

    Time Temperature Precipitation Wind Pressure Humidity
    00:00 -5°C° 0 mm 2 mps 753 mmHg 67%
    01:00 -5°C° 0 mm 2 mps 753 mmHg 66%
    02:00 -5°C° 0 mm 2 mps 753 mmHg 65%
    03:00 -5°C° 0 mm 2 mps 753 mmHg 64%
    04:00 -5°C° 0 mm 2 mps 753 mmHg 63%
    05:00 -3°C° 0 mm 1 mps 753 mmHg 62%
    06:00 -3°C° 0 mm 1 mps 753 mmHg 61%
    07:00 -3°C° 0 mm 1 mps 753 mmHg 60%
    08:00 -2°C° 0 mm 1 mps 753 mmHg 55%
    09:00 0°C° 0 mm 1 mps 753 mmHg 51%
    10:00 +1°C° 0 mm 1 mps 753 mmHg 47%
    11:00 +2°C° 0 mm 1 mps 753 mmHg 45%
    12:00 +2°C° 0 mm 1 mps 752 mmHg 43%
    13:00 +3°C° 0 mm 1 mps 752 mmHg 41%
    14:00 +2°C° 0 mm 1 mps 752 mmHg 45%
    15:00 +1°C° 0 mm 2 mps 751 mmHg 50%
    16:00 -1°C° 0 mm 2 mps 751 mmHg 54%
    17:00 -2°C° 0 mm 2 mps 751 mmHg 56%
    18:00 -2°C° 0 mm 2 mps 751 mmHg 57%
    19:00 -2°C° 0 mm 2 mps 750 mmHg 59%
    20:00 -2°C° 0 mm 2 mps 750 mmHg 59%
    21:00 -2°C° 0 mm 2 mps 750 mmHg 60%
    22:00 -2°C° 0 mm 2 mps 749 mmHg 60%
    23:00 -2°C° 0 mm 2 mps 749 mmHg 61%

    Day after tomorrow, 19 January, Friday

    Time Temperature Precipitation Wind Pressure Humidity
    00:00 -2°C° 0 mm 2 mps 749 mmHg 61%
    01:00 -2°C° 0 mm 2 mps 749 mmHg 61%
    02:00 -2°C° 0 mm 2 mps 749 mmHg 61%
    03:00 -2°C° 0 mm 2 mps 749 mmHg 60%
    04:00 -1°C° 0 mm 2 mps 749 mmHg 60%
    05:00 -1°C° 0 mm 2 mps 749 mmHg 60%
    06:00 -1°C° 0 mm 2 mps 749 mmHg 60%
    07:00 -1°C° 0 mm 2 mps 749 mmHg 61%
    08:00 +1°C° 0 mm 2 mps 749 mmHg 57%
    09:00 +3°C° 0 mm 2 mps 749 mmHg 54%
    10:00 +4°C° 0 mm 2 mps 749 mmHg 50%
    11:00 +5°C° 0 mm 2 mps 749 mmHg 50%
    12:00 +5°C° 0 mm 2 mps 749 mmHg 49%
    13:00 +6°C° 0 mm 2 mps 749 mmHg 49%
    14:00 +5°C° 0 mm 2 mps 749 mmHg 51%
    15:00 +4°C° 0 mm 2 mps 749 mmHg 53%
    16:00 +3°C° 0 mm 2 mps 749 mmHg 55%
    17:00 +2°C° 0 mm 3 mps 749 mmHg 56%
    18:00 +1°C° 0 mm 3 mps 750 mmHg 57%
    19:00 +1°C° 0 mm 3 mps 750 mmHg 58%
    20:00 +2°C° 0 mm 2 mps 750 mmHg 58%
    21:00 +2°C° 0 mm 2 mps 750 mmHg 58%
    22:00 +1°C° 0 mm 2 mps 750 mmHg 59%
    23:00 +1°C° 0 mm 2 mps 750 mmHg 59%

    20 January, Saturday

    Time Temperature Precipitation Wind Pressure Humidity
    00:00 +1°C° 0 mm 2 mps 750 mmHg 60%
    01:00 +1°C° 0 mm 2 mps 751 mmHg 60%
    02:00 +1°C° 0 mm 2 mps 751 mmHg 60%
    03:00 +1°C° 0 mm 2 mps 751 mmHg 60%
    04:00 0°C° 0 mm 3 mps 751 mmHg 60%
    05:00 0°C° 0 mm 3 mps 751 mmHg 61%
    06:00 0°C° 0 mm 3 mps 751 mmHg 61%
    07:00 0°C° 0 mm 3 mps 752 mmHg 61%
    08:00 +2°C° 0 mm 3 mps 752 mmHg 59%
    09:00 +3°C° 0 mm 3 mps 752 mmHg 56%
    10:00 +4°C° 0 mm 3 mps 752 mmHg 53%
    11:00 +5°C° 0 mm 3 mps 751 mmHg 53%
    12:00 +7°C° 0 mm 3 mps 751 mmHg 53%
    13:00 +7°C° 0 mm 3 mps 751 mmHg 52%
    14:00 +5°C° 0 mm 4 mps 750 mmHg 54%
    15:00 +4°C° 0 mm 4 mps 750 mmHg 57%
    16:00 +3°C° 0 mm 4 mps 750 mmHg 59%
    17:00 +3°C° 0 mm 4 mps 750 mmHg 59%
    18:00 +1°C° 0 mm 4 mps 750 mmHg 59%
    19:00 +1°C° 0 mm 5 mps 750 mmHg 59%
    20:00 +1°C° 0 mm 4 mps 750 mmHg 60%
    21:00 +1°C° 0 mm 4 mps 749 mmHg 60%
    22:00 +1°C° 0 mm 4 mps 749 mmHg 61%
    23:00 +1°C° 0 mm 4 mps 749 mmHg 62%

    21 January, Sunday

    Time Temperature Precipitation Wind Pressure Humidity
    00:00 0°C° 0 mm 4 mps 749 mmHg 63%
    01:00 0°C° 0 mm 4 mps 749 mmHg 64%
    02:00 0°C° 0 mm 4 mps 748 mmHg 64%
    03:00 0°C° 0 mm 4 mps 748 mmHg 64%
    04:00 0°C° 0 mm 4 mps 748 mmHg 65%
    05:00 0°C° 0 mm 4 mps 748 mmHg 65%
    06:00 0°C° 0 mm 4 mps 749 mmHg 65%
    07:00 0°C° 0 mm 4 mps 749 mmHg 65%
    08:00 +1°C° 0 mm 4 mps 749 mmHg 62%
    09:00 +2°C° 0 mm 5 mps 749 mmHg 58%
    10:00 +3°C° 0 mm 5 mps 749 mmHg 55%
    11:00 +5°C° 0 mm 5 mps 749 mmHg 55%
    12:00 +5°C° 0 mm 5 mps 749 mmHg 54%
    13:00 +5°C° 0 mm 6 mps 749 mmHg 54%
    14:00 +4°C° 0 mm 6 mps 749 mmHg 57%
    15:00 +3°C° 0 mm 6 mps 749 mmHg 59%
    16:00 +2°C° 0 mm 6 mps 749 mmHg 62%
    17:00 +1°C° 0 mm 6 mps 749 mmHg 62%
    18:00 +1°C° 0 mm 6 mps 749 mmHg 63%
    19:00 -1°C° 0 mm 6 mps 750 mmHg 64%
    20:00 -1°C° 0 mm 6 mps 750 mmHg 64%
    21:00 -2°C° 0 mm 6 mps 750 mmHg 64%
    22:00 -1°C° 0 mm 5 mps 750 mmHg 65%
    23:00 -2°C° 0 mm 6 mps 750 mmHg 64%

    22 January, Monday

    Time Temperature Precipitation Wind Pressure Humidity
    00:00 -3°C° 0 mm 6 mps 750 mmHg 64%
    01:00 -3°C° 0 mm 6 mps 750 mmHg 64%
    02:00 -3°C° 0 mm 6 mps 751 mmHg 63%
    03:00 -3°C° 0 mm 6 mps 751 mmHg 62%
    04:00 -3°C° 0 mm 6 mps 751 mmHg 60%
    05:00 -4°C° 0 mm 7 mps 751 mmHg 59%
    06:00 -4°C° 0 mm 7 mps 751 mmHg 57%
    07:00 -4°C° 0 mm 7 mps 752 mmHg 56%
    08:00 -3°C° 0 mm 7 mps 752 mmHg 52%
    09:00 -2°C° 0 mm 7 mps 752 mmHg 48%
    10:00 -1°C° 0 mm 7 mps 753 mmHg 45%
    11:00 0°C° 0 mm 7 mps 753 mmHg 43%
    12:00 0°C° 0 mm 8 mps 753 mmHg 41%
    13:00 0°C° 0 mm 8 mps 752 mmHg 40%
    14:00 0°C° 0 mm 8 mps 753 mmHg 39%
    15:00 -1°C° 0 mm 8 mps 753 mmHg 39%
    16:00 -2°C° 0 mm 8 mps 753 mmHg 39%
    17:00 -2°C° 0 mm 8 mps 753 mmHg 38%
    18:00 -4°C° 0 mm 8 mps 753 mmHg 37%
    19:00 -3°C° 0 mm 7 mps 753 mmHg 36%
    20:00 -3°C° 0 mm 7 mps 753 mmHg 36%
    21:00 -4°C° 0 mm 7 mps 753 mmHg 35%
    22:00 -4°C° 0 mm 7 mps 753 mmHg 35%
    23:00 -4°C° 0 mm 7 mps 753 mmHg 35%
    Show more